Location: Napoli
(40.8639°N, 14.2562°E)
Time: 13:49:48
(UTC+02:00)

ISS - Pass Details

Date: 22 May 2025
Orbit: 415 x 417 km, 51.6° (Epoch: 15 June)

Event Time Altitude Azimuth Distance (km) Brightness Sun altitude
Rises 21:30:05 0° 311° (NW) 2,361 2.3 -11.7°
Reaches altitude 10° 21:32:29 10° 327° (NNW) 1,495 0.4 -12.0°
Maximum altitude 21:35:12 22° 21° (NNE) 954 -1.7 -12.4°
Drops below altitude 10° 21:37:55 10° 75° (ENE) 1,489 -1.3 -12.8°
Enters shadow 21:38:04 - 77° (ENE) 1,539 -1.2 -12.8°
